www.pogodaiklimat.ru

Погода и климат >> Архив погоды >> Россия >> Якутия >> Усть-Чаркы


ПОГОДА в Усть-Чарках

  • Прогноз погоды в Усть-Чарках
  • Монитор погоды в Усть-Чарках

АРХИВ ПОГОДЫ в Усть-Чарках

Время (UTC), дата Ветер
(напр.,м/с)
 
Видим.   Явления Облачность Т
(С)
Тd
(С)
f
(%)
Тe
(С)
Тes
(С)
Комфортность P
(гПа)
Po
(гПа)
Тmin
(С)
Tmax
(С)
R
(мм)
R24
(мм)
S
(см)
12 11.07 С 9-10
{17}
50 км гроза без осадков 10/10 600 м
[Cb cap]
+20.2 +12.0 59 +21 +21 комфорт 1010.7 979.2
15 11.07 штиль 0 10 км дым {гроза, ливн. осадки} 6/3 600 м
[Cb cap Ac trans]
+13.1 +12.4 96 +13 +13 1011.5 979.3
18 11.07 штиль 0 10 км дым {гроза, ливн. осадки} 4/3 600 м
[Sc Ac trans Ci fib]
+10.3 +9.9 97 +9 +10 1012.2 979.6
21 11.07 штиль 0 4000 м дым 10/3 1000 м
[Sc Ci fib]
+11.5 +11.1 97 +11 +13 1014.1 981.5 +8.4 11
00 12.07 штиль 0 10 км дым 4/0
[Ci fib]
+17.4 +15.2 87 +17 +27 1013.1 981.2
03 12.07 штиль 0 10 км дым 1/1 1000 м
[Cu hum]
+23.7 +11.7 47 +25 +39 комфорт 1011.0 979.9
06 12.07 С 1 10 км дым 3/0
[Ci fib]
+26.7 +8.5 32 +27 +35 жарко 1009.0 978.2
09 12.07 Ю 1 50 км 8/0
[Cs]
+26.2 +9.6 35 +27 +29 жарко 1008.1 977.4 +27.5
12 12.07 штиль 0 20 км дым 4/0
[Ac trans Ci sp]
+18.5 +12.2 67 +19 +19 1008.4 976.8
15 12.07 штиль 0 20 км дым 6/0
[Ci sp]
+9.7 +8.9 95 +9 +9 1009.3 976.7
18 12.07 Ю 1 10 км дым 6/0
[Ci sp]
+6.2 +5.8 97 +5 +5 1010.0 976.9
21 12.07 ЮВ 1 10 км дым 4/0
[Ci fib]
+14.3 +9.4 72 +15 +18 1009.0 977.0 +5.8
00 13.07 ЮВ 1 20 км дым 4/0
[Ac trans Ci fib]
+21.5 +10.8 51 +23 +31 комфорт 1007.8 976.5
03 13.07 ЮВ 2 20 км дым 4/0
[Ci fib]
+28.3 +11.3 35 +29 +39 жарко 1005.5 975.0
06 13.07 ЮВ 1 20 км дым 6/0
[Ci sp]
+30.7 +8.9 26 +30 +38 жарко 1004.0 973.8
09 13.07 Ю 2 20 км дым 8/0
[Ci fib]
+30.8 +9.1 26 +30 +32 жарко 1003.2 973.0 +32.2
12 13.07 штиль 0 20 км дым 8/0
[Cs]
+26.2 +12.6 43 +28 +28 жарко 1003.5 972.9
15 13.07 штиль 0 20 км дым 10/0
[Ci fib]
+13.9 +11.1 83 +14 +14 1005.4 973.4
18 13.07 штиль 0 20 км дым 10/0
[Ac trans Ci fib]
+9.0 +8.2 95 +8 +8 1006.4 973.8
21 13.07 ЮВ 1 20 км дым 6/0
[Ci fib]
+15.8 +12.5 81 +16 +19 1005.4 973.6 +8.7
00 14.07 ЮВ 1 20 км дым 6/0
[Ci fib]
+24.2 +11.5 45 +26 +34 жарко 1003.4 972.5
03 14.07 ЮЗ 3 20 км дым 6/0
[Ac trans]
+31.3 +9.9 27 +31 +37 жарко 1001.0 971.0
06 14.07 С 5 4000 м мгла 8/0
[Ac trans Ci fib]
+26.2 +12.0 41 +28 +30 жарко 1001.5 970.9
09 14.07 С 5
{11}
4000 м мгла 10/4 600 м
[Cb cap As op]
+23.3 +12.3 50 +26 +26 жарко 1003.9 972.9 +32.4
12 14.07 СЗ 3
{11}
10 км дым 10/8 600 м
[Cb cap Ac trans Ci fib]
+20.2 +12.0 59 +22 +22 комфорт 1006.8 975.4
15 14.07 С 3 20 км дым 10/10 600 м
[Cb cap]
+17.3 +9.5 60 +17 +17 1009.1 977.4
18 14.07 штиль 0 10 км дым 10/8 600 м
[Cb cap As trans]
+13.9 +7.4 65 +14 +14 1011.0 978.8
21 14.07 СВ 2 10 км дым 3/0
[Ac trans]
+14.6 +8.2 65 +14 +17 1011.3 979.2 +12.3
00 15.07 СВ 1 10 км дым 3/0
[Ci fib]
+16.1 +6.5 53 +17 +26 1011.5 979.5
03 15.07 СЗ 2 20 км дым 3/3
[Cu hum]
+19.8 +8.3 47 +21 +29 комфорт 1010.6 979.0
06 15.07 СЗ 3 50 км 8/0 1000 м
[Ci fib]
+21.0 +6.9 40 +22 +28 комфорт 1009.9 978.4
09 15.07 С 4 20 км дым ясно +20.5 +5.6 38 +21 +23 комфорт 1009.8 978.3 +22.2
12 15.07 ЮЗ 1 20 км дым ясно +14.6 +5.6 55 +15 +15 1010.7 978.6
15 15.07 штиль 0 10 км дым 3/0
[Ci fib]
+4.3 +3.3 93 +3 +3 1013.0 979.6
18 15.07 штиль 0 10 км дым 4/0
[Ci fib]
+2.8 +2.3 97 +2 +2 1014.2 980.6
21 15.07 штиль 0 10 км дым 8/0
[Ac trans Ci fib]
+8.7 +5.9 83 +8 +10 1013.0 980.2 +2.5
00 16.07 С 3 10 км дым 6/0
[Ac trans Ci fib]
+14.9 +2.0 42 +14 +19 1012.3 980.2
03 16.07 С 2 10 км дым 4/0
[Ci fib]
+18.7 +3.4 36 +19 +29 1011.1 979.4
06 16.07 С 3 10 км дым 8/4 1000 м
[Sc Ci sp]
+19.1 +3.4 35 +20 +23 1010.0 978.3
09 16.07 С 3 10 км дым 3/0
[Ci fib]
+19.0 +3.2 35 +19 +21 1008.8 977.2 +20.3
12 16.07 З 1 10 км дым ясно +14.7 +1.1 40 +15 +16 1009.1 977.1
15 16.07 З 1 4000 м мгла ясно +4.6 +1.0 77 +3 +3 1010.6 977.3
18 16.07 штиль 0 4000 м мгла ясно +1.0 +1.0 100 -0 -0 1010.9 977.2
21 16.07 штиль 0 4000 м мгла 8/0
[Ci fib]
+5.9 +3.5 85 +5 +8 1009.7 976.6 +0.1
00 17.07 ЮВ 1 4000 м мгла 6/0
[Ci fib]
+13.0 +4.2 55 +13 +21 1007.7 975.4
03 17.07 штиль 0 10 км дым 3/0
[Ci fib]
+18.8 +3.2 35 +19 +33 опасность
простуды
1004.7 973.2
06 17.07 СВ 3 10 км дым 4/0
[Ci fib]
+20.4 +3.4 33 +21 +27 комфорт 1002.2 970.9
09 17.07 С 4 10 км дым 9/0
[As trans]
+17.6 +3.8 40 +17 +18 1001.2 969.7 +21.6
12 17.07 С 4 10 км дым 10/0
[As op]
+15.7 +5.5 51 +15 +15 1000.7 969.0
15 17.07 СЗ 2 20 км слаб. ливневой дождь 10/8 600 м
[Cb cap As op]
+11.4 +9.4 88 +10 +10 1001.2 969.0
18 17.07 С 4 20 км слаб. ливневой дождь 10/8 600 м
[Cb cap As op]
+9.4 +7.5 88 +6 +6 1001.1 968.7
21 17.07 С 4 20 км дым {ливн. осадки} 10/5 600 м
[Cb cap As op]
+7.9 +3.7 75 +5 +5 1002.7 970.1 +7.8 2
00 18.07 С 4 20 км дым {ливн. осадки} 10/6 600 м
[Cb cap As op]
+7.5 +3.5 76 +4 +5 1005.5 972.6
03 18.07 С 4
{11}
20 км дым 10/10 1000 м
[Sc]
+10.3 +2.6 59 +8 +8 1006.5 974.0
06 18.07 С 5
{10}
20 км дым 10/4 600 м
[Cb cap Ac trans Ci fib]
+12.0 +1.7 49 +10 +11 1007.4 975.0

 

Местоположение метеостанции Усть-Чаркы (Якутия, Россия): широта 66.80 долгота 136.60 высота над уровнем моря 274 м.

В архиве по умолчанию представлена погода в Усть-Чарках за последнюю неделю. Архивные данные за месяц целиком и за предыдущие месяцы, начиная с января 2011 года, Вы можете получить, выбрав интересующий диапазон дат из раскрывающегося списка и нажав кнопку "Ввод!".


*Определитесь, кто Вы:
робот инопланетянин человек

Внимание! Время в таблицах - всемирное. Для получения местного времени необходимо прибавить поправку, которая равна 10 ч.

Смотрите также архив погоды в соседних городах и на ближайших метеорологических станциях:

Погода в Батагае (Якутия, Россия) (128 км)
Погода в Верхоянске (Якутия, Россия) (162 км)
Погода в Иэме (Якутия, Россия) (171 км)
Погода в Екюччю (Якутия, Россия) (219 км)
Погода в Батагай-Алыте (Якутия, Россия) (288 км)
Погода в Усть-Моме (Якутия, Россия) (294 км)
Погода в Депутатском (Якутия, Россия) (316 км)
Погода в Томпо (Якутия, Россия) (319 км)
Погода в Себян-Кюеле (Якутия, Россия) (341 км)
Погода в Усть-Куйге (Якутия, Россия) (358 км)

Пояснения к столбцам:

Ветер - указаны скорость ветра в м/с - средняя за 10 мин, порывы в срок и между сроками (в фигурных скобках) и направление, откуда дует ветер: С - северный, СВ - северо-восточный, В - восточный, ЮВ - юго-восточный, Ю - южный, ЮЗ - юго-западный, З - западный, СЗ - северо-западный.
Видимость - горизонтальная дальность видимости в метрах или километрах. При видимости от 1 до 10 км при отсутствии осадков обычно наблюдается дымка, при ухудшении видимости до 1 км и менее - туман. В сухую погоду видимость может ухудшаться дымом, пылью или мглою.
Явления - указаны атмосферные явления, наблюдавшиеся в срок или в последний час перед сроком; фигурными скобками обозначены явления, наблюдавшиеся между сроками (за 1-3 часа до срока); квадратными скобками обозначены град или гололедные отложения с указанием их диаметра в мм.
Облачность - указаны через наклонную черту общая и нижняя облачность в баллах и высота нижней границы облаков в метрах; квадратными скобками обозначены формы облаков: Ci - перистые, Cs - перисто-слоистые, Cc - перисто-кучевые, Ac - высококучевые, As - высокослоистые, Sc - слоисто-кучевые, Ns - слоисто-дождевые, Cu - кучевые, Cb - кучево-дождевые. Подробнее классификацию облаков см. в Атласе облаков (PDF).
T - Температура воздуха - температура, измеренная на высоте 2 м над землей.
Td - Температура точки росы - температура, при понижении до которой содержащийся в воздухе водяной пар достигнет насыщения.
f - Относительная влажность воздуха - влажноcть воздуха, измеренная на высоте 2 м над землей.
Te - Эффективная температура - температура, которую ощущает одетый по сезону человек в тени. Характеристика душности погоды. При расчете учитывается влияние влажности воздуха и скорости ветра на теплоощущения человека.
Tes - Эффективная температура на солнце - температура, которую ощущает человек, с поправкой на солнечный нагрев. Характеристика знойности погоды. Зависит от высоты солнца над горизонтом, облачности и скорости ветра. Ночью, в пасмурную погоду, а также при ветре 12 м/с и более поправка равна нулю.
P - Атмосферное давление - приведенное к уровню моря атмосферное давление.
Po - Атмосферное давление - измеренное на уровне метеостанции атмосферное давление.
Tmin - Минимальная температура - минимум температуры воздуха на высоте 2 м над землей.
Tmax - Максимальная температура - максимум температуры воздуха на высоте 2 м над землей.
R - Количество осадков - Количество выпавших осадков за период времени, мм. При наведении курсора мыши на число - период времени, за который выпало указанное количество осадков.
R24 - Количество осадков - Количество выпавших осадков за 24 часа, мм.
S - Снежный покров - Высота снежного покрова, см. При наведении курсора мыши на число - состояние снежного покрова и степень покрытия местности в баллах.